カタログに戻る

STARLINK-31436

運用中通信VLEO
NORAD 59019·PAYLOAD·🇺🇸 United States

打ち上げ Feb 23, 2024 から Vandenberg Space Force Base

Loading…

次のパス (今後24時間)

TLE

最新Source: CelesTrak SupGP

元期: Sep 14, 2026, 20:41 UTC

1 59019C 24036X   26257.86229167  .00032508  00000+0  96069-3 0  2579
2 59019  53.1569 278.2496 0001159  88.5979 254.6512 15.34366640    19

AllMySatでSTARLINK-31436をリアルタイム追跡

Download on the App Store